Change the Weather History Date:

Monday, October 8, 2012

  Actual Average Record
Temperature  
Mean Temperature 55 °F 56 °F  
Max Temperature 72 °F 68 °F 85 °F (1979)
Min Temperature 38 °F 44 °F 29 °F (1959)
Degree Days  
Heating Degree Days 10 9  
Month to date heating degree days 63 64  
Since 1 July heating degree days 70 153  
Cooling Degree Days 0 0  
Month to date cooling degree days 5 5  
Year to date cooling degree days 1613 1158  
Growing Degree Days 4 (Base 50)    
Moisture  
Dew Point 23 °F    
Average Humidity 37    
Maximum Humidity 59    
Minimum Humidity 15    
Precipitation  
Precipitation 0.00 in 0.05 in 0.50 in (1981)
Month to date precipitation 0.00 0.38  
Year to date precipitation 8.09 12.10  
Snow  
Snow 0.00 in 0.00 in T in (1961)
Month to date snowfall 0.0 0.1  
Since 1 July snowfall 0.0 0.1  
Snow Depth 0.00 in    
Sea Level Pressure  
Sea Level Pressure 29.96 in    
Wind  
Wind Speed 6 mph (SE)    
Max Wind Speed 12 mph    
Max Gust Speed 14 mph    
Visibility 10 miles    
Events      
T = Trace of Precipitation, MM = Missing Value Source: NWS Daily Summary

Daily Weather History Graph

Daily Weather History Graph

Search for Another Location

Airport or City:

Trip Planner

Search our weather history database for the weather conditions in past years. The results will help you decide how hot, cold, wet, or windy it might be!

Date:

Astronomy

Oct. 08, 2012 Rise Set
Actual Time 7:32 AM MDT 6:57 PM MDT
Civil Twilight 7:04 AM MDT 7:24 PM MDT
Nautical Twilight 6:33 AM MDT 7:56 PM MDT
Astronomical Twilight 6:01 AM MDT 8:28 PM MDT
Moon 12:13 AM MDT (10/8) 2:51 PM MDT (10/8)
Length of Visible Light 12h 20m
Length of Day
11h 25m
Last Quarter, 46% of the Moon is Illuminated
Oct 8
Last Quarter
Oct 15
New
Oct 21
First Quarter
Oct 29
Full
Nov 6
Last Quarter

Hourly Weather History & Observations

Time (MDT) Temp. Windchill Dew Point Humidity Pressure Visibility Wind Dir Wind Speed Gust Speed Precip Events Conditions
12:53 AM 43.0 °F 39.5 °F 19.9 °F 40% 30.05 in 10.0 mi SE 5.8 mph - N/A   Clear
1:53 AM 42.1 °F 37.7 °F 21.9 °F 45% 30.05 in 10.0 mi SE 6.9 mph - N/A   Clear
2:53 AM 42.1 °F 37.1 °F 23.0 °F 47% 30.04 in 10.0 mi SE 8.1 mph - N/A   Clear
3:53 AM 39.9 °F 35.1 °F 23.0 °F 51% 30.03 in 10.0 mi SE 6.9 mph - N/A   Clear
4:53 AM 39.9 °F 35.8 °F 25.0 °F 55% 30.03 in 10.0 mi SE 5.8 mph - N/A   Clear
5:53 AM 39.0 °F 33.4 °F 25.0 °F 57% 30.03 in 10.0 mi SE 8.1 mph - N/A   Clear
6:53 AM 41.0 °F 35.8 °F 26.1 °F 55% 30.04 in 10.0 mi SE 8.1 mph - N/A   Clear
7:53 AM 39.0 °F 33.4 °F 25.0 °F 57% 30.06 in 10.0 mi ESE 8.1 mph - N/A   Partly Cloudy
8:53 AM 46.9 °F - 26.1 °F 44% 30.04 in 10.0 mi SE 9.2 mph - N/A   Partly Cloudy
9:53 AM 52.0 °F - 19.9 °F 28% 30.04 in 10.0 mi SE 8.1 mph - N/A   Partly Cloudy
10:53 AM 57.9 °F - 18.0 °F 21% 30.01 in 10.0 mi Variable 4.6 mph - N/A   Partly Cloudy
11:53 AM 60.1 °F - 18.0 °F 20% 29.99 in 10.0 mi Variable 3.5 mph - N/A   Partly Cloudy
12:53 PM 64.9 °F - 17.1 °F 16% 29.97 in 10.0 mi Variable 5.8 mph - N/A   Partly Cloudy
1:53 PM 68.0 °F - 21.9 °F 17% 29.94 in 10.0 mi NW 5.8 mph - N/A   Clear
2:53 PM 70.0 °F - 21.0 °F 16% 29.91 in 10.0 mi Calm Calm - N/A   Clear
3:53 PM 71.1 °F - 21.9 °F 16% 29.90 in 10.0 mi Variable 3.5 mph - N/A   Clear
4:53 PM 71.1 °F - 24.1 °F 17% 29.88 in 10.0 mi NW 5.8 mph - N/A   Clear
5:53 PM 69.1 °F - 24.1 °F 18% 29.89 in 10.0 mi North 4.6 mph - N/A   Partly Cloudy
6:53 PM 63.0 °F - 26.1 °F 25% 29.88 in 10.0 mi NNW 3.5 mph - N/A   Partly Cloudy
7:53 PM 60.8 °F - 28.4 °F 29% 29.94 in 10.0 mi Calm Calm - N/A   Partly Cloudy
8:53 PM 57.9 °F - 27.0 °F 31% 29.87 in 10.0 mi SSE 6.9 mph - N/A   Clear
9:53 PM 55.9 °F - 27.0 °F 33% 29.87 in 10.0 mi SSE 8.1 mph - N/A   Clear
10:53 PM 53.1 °F - 28.0 °F 38% 29.86 in 10.0 mi ESE 4.6 mph - N/A   Clear
11:53 PM 55.9 °F - 24.1 °F 29% 29.86 in 10.0 mi Calm Calm - N/A   Clear